GW3032 Weather Reports


time (UTC)temp
C
wind
direction
speed
KPH
gust
KPH
rain 1hr
cm
rain 24hr
cm
rain mn
cm
humidity
%
barometer
mb
20260506113927 6 325 1.6 3.2 0.00 0.56 0.56 99 1010.2
20260506113425 6 311 0.0 1.6 0.00 0.56 0.56 99 1010.3
20260506112921 7 289 0.0 0.0 0.00 0.56 0.56 99 1010.4
20260506112419 6 285 0.0 1.6 0.00 0.56 0.56 99 1010.2
20260506111916 7 271 0.0 1.6 0.00 0.56 0.56 99 1009.9
20260506111414 7 319 0.0 1.6 0.00 0.56 0.56 99 1009.7
20260506110910 6 296 0.0 0.0 0.00 0.56 0.56 99 1009.5
20260506110408 6 295 0.0 0.0 0.00 0.56 0.56 99 1009.5
20260506105905 6 299 0.0 1.6 0.00 0.56 0.56 99 1009.7
20260506105401 6 315 0.0 1.6 0.00 0.56 0.56 99 1009.4
20260506104858 6 294 0.0 1.6 0.00 0.56 0.56 99 1009.4
20260506104356 6 296 0.0 1.6 0.00 0.56 0.56 99 1009.6
20260506103854 6 318 1.6 3.2 0.00 0.56 0.56 99 1009.1
20260506103351 6 312 1.6 1.6 0.00 0.56 0.56 99 1009.0
20260506102848 6 335 0.0 3.2 0.00 0.56 0.56 99 1009.3
20260506102346 6 356 4.8 8.0 0.00 0.56 0.56 99 1009.1
20260506101843 6 315 0.0 3.2 0.00 0.56 0.56 99 1009.2
20260506101339 6 12 3.2 4.8 0.00 0.56 0.56 99 1009.5
20260506100837 6 314 1.6 4.8 0.00 0.56 0.56 99 1009.5
20260506100335 6 313 1.6 3.2 0.00 0.56 0.56 99 1009.1
20260506095833 6 300 0.0 1.6 0.00 0.56 0.56 99 1008.8
20260506095330 6 303 0.0 1.6 0.00 0.56 0.56 99 1008.6
20260506094827 6 308 1.6 1.6 0.00 0.56 0.56 99 1008.5
20260506094326 6 306 0.0 0.0 0.00 0.56 0.56 99 1008.0
20260506093823 7 308 0.0 1.6 0.00 0.56 0.56 99 1008.3
20260506093320 7 292 0.0 0.0 0.00 0.56 0.56 99 1008.8
20260506092818 7 292 0.0 0.0 0.00 0.56 0.56 99 1008.8
20260506092316 7 277 0.0 1.6 0.00 0.56 0.56 99 1008.9
20260506091812 7 310 0.0 0.0 0.00 0.56 0.56 99 1009.2
20260506091310 7 323 1.6 1.6 0.00 0.56 0.56 99 1009.5
20260506090808 7 266 1.6 3.2 0.00 0.56 0.56 99 1009.5
20260506090305 7 338 1.6 1.6 0.00 0.56 0.56 99 1009.2
20260506085801 7 305 0.0 1.6 0.00 0.56 0.56 99 1009.5
20260506085257 7 318 1.6 4.8 0.00 0.56 0.56 99 1009.4
20260506084754 7 305 0.0 1.6 0.00 0.56 0.56 99 1009.3
20260506084250 7 310 1.6 1.6 0.00 0.56 0.56 99 1009.1
20260506083748 7 300 0.0 3.2 0.00 0.56 0.56 99 1009.3
20260506083245 7 326 1.6 1.6 0.00 0.56 0.56 99 1009.1
20260506082743 7 350 3.2 4.8 0.18 0.56 0.56 99 1008.8
20260506082238 7 298 1.6 3.2 0.18 0.56 0.56 99 1008.9
20260506081736 7 335 3.2 3.2 0.00 0.53 0.53 99 1009.1
20260506081233 7 328 1.6 4.8 0.00 0.53 0.53 99 1009.0
20260506080731 7 286 3.2 8.0 0.00 0.53 0.53 99 1009.1
20260506080227 7 320 1.6 4.8 0.13 0.53 0.53 99 1009.0
20260506073211 7 329 0.0 3.2 0.00 0.43 0.43 99 1009.1
20260506072708 7 312 0.0 1.6 0.13 0.43 0.43 99 1009.1
20260506072206 7 337 3.2 3.2 0.00 0.41 0.41 99 1009.0
20260506071703 7 318 1.6 1.6 0.18 0.41 0.41 99 1009.1
20260506071201 7 322 1.6 3.2 0.18 0.41 0.41 99 1009.1
20260506070657 7 305 1.6 3.2 0.13 0.38 0.38 99 1009.2
20260506070154 7 316 0.0 1.6 0.18 0.36 0.36 99 1009.0
20260506062131 7 315 0.0 3.2 0.13 0.30 0.30 99 1008.8
20260506061627 7 322 3.2 3.2 0.00 0.28 0.28 99 1008.9
20260506061125 7 322 1.6 1.6 0.00 0.28 0.28 99 1009.1
20260506060624 7 317 0.0 1.6 0.00 0.28 0.28 99 1009.2
20260506060120 7 307 0.0 0.0 0.18 0.28 0.28 99 1009.4
20260506051052 7 306 1.6 3.2 0.00 0.15 0.15 99 1009.5
20260506050550 7 306 0.0 0.0 0.13 0.15 0.15 99 1009.4
20260506045040 7 317 3.2 4.8 0.13 0.10 0.10 99 1009.2
20260506044538 7 304 0.0 3.2 0.13 0.10 0.10 99 1009.2
20260506044035 7 321 0.0 1.6 0.18 0.08 0.08 99 1009.2
20260506043532 7 305 0.0 1.6 0.18 0.08 0.08 99 1009.4
20260506043030 7 319 0.0 3.2 0.13 0.05 0.05 99 1009.5
20260506042529 7 314 0.0 1.6 0.13 0.05 0.05 99 1009.3
20260506042027 8 320 0.0 1.6 0.18 0.03 0.03 99 1009.4
20260506041525 8 307 3.2 4.8 0.18 0.03 0.03 99 1009.5
20260506041021 8 333 3.2 4.8 0.00 0.00 0.00 99 1009.5
20260506040520 8 311 3.2 3.2 0.00 0.00 0.00 99 1009.4
20260506040015 8 343 3.2 4.8 0.18 2.67 2.67 99 1009.8
20260506035512 8 348 4.8 8.0 0.00 2.64 2.64 99 1009.5
20260506035009 8 334 3.2 8.0 0.13 2.64 2.64 99 1009.7
20260506034507 8 2 4.8 8.0 0.13 2.64 2.64 99 1009.7
20260506034003 8 351 3.2 4.8 0.18 2.62 2.62 99 1009.7
20260506033501 8 324 3.2 3.2 0.18 2.62 2.62 99 1009.8
20260506032957 8 318 0.0 3.2 0.13 2.59 2.59 99 1009.9
20260506032455 8 316 1.6 3.2 0.18 2.57 2.57 99 1009.9
20260506031951 8 335 1.6 3.2 0.30 2.57 2.57 99 1010.0
20260506031449 8 311 1.6 1.6 0.30 2.54 2.54 99 1010.1
20260506030946 8 331 1.6 3.2 0.30 2.51 2.51 99 1010.1
20260506030444 9 316 1.6 4.8 0.30 2.49 2.49 99 1010.2
20260506025940 9 315 1.6 3.2 0.48 2.46 2.46 99 1010.0
20260506025437 9 311 0.0 1.6 0.48 2.41 2.41 99 1010.2
20260506024934 9 310 0.0 0.0 0.43 2.36 2.36 99 1010.0
20260506024431 9 309 0.0 0.0 0.30 2.31 2.31 99 1010.0
20260506023927 9 309 0.0 1.6 0.30 2.29 2.29 99 1010.2
20260506023424 9 307 0.0 3.2 0.43 2.26 2.26 99 1010.0
20260506022920 9 296 0.0 0.0 0.30 2.21 2.21 99 1010.0
20260506022418 9 296 0.0 0.0 0.48 2.18 2.18 99 1010.0
20260506021916 9 294 0.0 0.0 0.43 2.16 2.16 99 1010.1
20260506021413 9 297 0.0 0.0 0.48 2.11 2.11 99 1010.0
20260506020910 9 285 0.0 0.0 0.30 2.06 2.06 99 1010.0
20260506020408 9 274 0.0 1.6 0.43 2.03 2.03 99 1009.8
20260506015905 9 318 1.6 1.6 0.30 1.98 1.98 99 1009.7
20260506015402 9 307 0.0 0.0 0.48 1.96 1.96 99 1009.5
20260506014859 9 300 0.0 0.0 0.30 1.91 1.91 99 1009.4
20260506014356 9 300 0.0 0.0 0.30 1.88 1.88 99 1009.4
20260506013852 9 325 1.6 1.6 0.30 1.85 1.85 99 1009.3
20260506013350 9 300 1.6 3.2 0.30 1.83 1.83 99 1009.2
20260506012846 9 308 0.0 1.6 0.30 1.80 1.80 99 1009.3
20260506012343 9 306 0.0 0.0 0.30 1.78 1.78 99 1009.2
20260506011840 9 318 0.0 1.6 0.36 1.75 1.75 99 1009.1
20260506011337 10 310 0.0 1.6 0.30 1.73 1.73 99 1009.1
20260506010834 10 325 0.0 4.8 0.30 1.70 1.70 99 1009.3
20260506010333 10 288 0.0 3.2 0.30 1.68 1.68 99 1009.3
20260506005829 10 19 3.2 4.8 0.13 1.65 1.65 99 1009.2
20260506005326 10 328 1.6 8.0 0.00 1.63 1.63 99 1009.4
20260506004822 10 312 0.0 1.6 0.18 1.63 1.63 99 1009.5
20260506004320 10 337 3.2 8.0 0.13 1.60 1.60 99 1009.2
20260506003815 10 334 3.2 3.2 0.13 1.60 1.60 99 1009.2
20260506003312 10 333 1.6 4.8 0.00 1.57 1.57 99 1009.3
20260506002808 10 319 0.0 1.6 0.18 1.57 1.57 99 1009.1
20260506002306 10 329 0.0 4.8 0.13 1.55 1.55 99 1009.0
20260506001801 10 300 0.0 1.6 0.30 1.55 1.55 99 1008.9
20260506001258 10 348 1.6 4.8 0.18 1.52 1.52 99 1009.1
20260506000755 10 306 3.2 3.2 0.30 1.50 1.50 99 1008.8
20260506000254 10 283 0.0 0.0 0.61 1.50 1.50 99 1008.5
20260505235749 10 294 1.6 4.8 0.79 1.45 1.45 99 1008.6
20260505235247 10 256 1.6 1.6 0.43 1.37 1.37 99 1008.6
20260505234743 10 269 0.0 0.0 0.30 1.32 1.32 99 1008.4
20260505234241 10 268 0.0 3.2 0.30 1.30 1.30 99 1008.7
20260505233737 10 351 1.6 3.2 0.13 1.27 1.27 99 1008.7
20260505233236 10 303 0.0 1.6 0.00 1.24 1.24 99 1008.6
20260505232732 10 315 3.2 3.2 0.00 1.24 1.24 99 1008.7
20260505232230 10 339 1.6 3.2 0.00 1.24 1.24 99 1008.7
20260505231726 10 305 3.2 4.8 0.00 1.24 1.24 99 1008.6
20260505231226 10 314 3.2 3.2 0.18 1.24 1.24 99 1008.7
20260505230723 10 351 1.6 8.0 0.18 1.24 1.24 99 1008.8
20260505230220 10 334 4.8 4.8 0.00 1.22 1.22 99 1008.8
20260505225716 10 354 1.6 1.6 0.00 1.22 1.22 99 1008.9
20260505225213 10 334 4.8 4.8 0.13 1.22 1.22 99 1009.3
20260505224709 10 3 4.8 8.0 0.13 1.22 1.22 99 1009.2
20260505224207 10 355 4.8 9.7 0.18 1.19 1.19 99 1009.1
20260505223704 10 334 4.8 8.0 0.30 1.17 1.17 99 1009.2
20260505223200 11 30 4.8 9.7 0.48 1.14 1.14 99 1009.3
20260505222656 11 348 3.2 11.3 0.79 1.12 1.12 99 1009.3
20260505222152 11 358 1.6 9.7 1.07 1.07 1.07 99 1009.2
20260505221650 12 316 8.0 11.3 0.61 0.94 0.94 99 1009.1
20260505221146 12 339 4.8 8.0 0.48 0.86 0.86 99 1008.7
20260505220643 13 304 3.2 3.2 0.30 0.84 0.84 99 1008.6
20260505220141 13 342 4.8 8.0 0.18 0.79 0.79 99 1008.3
20260505215638 13 27 4.8 8.0 0.18 0.79 0.79 99 1008.4
20260505215136 13 313 1.6 3.2 0.13 0.76 0.76 99 1008.5
20260505214634 13 322 3.2 3.2 0.13 0.76 0.76 99 1008.4
20260505214131 13 318 1.6 3.2 0.00 0.74 0.74 99 1008.3
20260505213629 13 309 1.6 3.2 0.00 0.74 0.74 99 1008.4
20260505213125 13 333 3.2 4.8 0.00 0.74 0.74 99 1008.3
20260505212621 13 309 1.6 1.6 0.00 0.74 0.74 99 1008.3
20260505212119 13 264 1.6 3.2 0.18 0.74 0.74 99 1008.4
20260505211615 13 293 0.0 1.6 0.30 0.74 0.74 99 1008.3
20260505211113 13 290 0.0 0.0 0.30 0.71 0.71 99 1008.4
20260505210609 13 275 0.0 1.6 0.18 0.69 0.69 99 1008.4
20260505210106 13 293 1.6 3.2 0.13 0.66 0.66 99 1008.4
20260505205604 13 292 0.0 0.0 0.00 0.64 0.64 99 1008.4
20260505205101 13 253 1.6 1.6 0.30 0.64 0.64 99 1008.6
20260505204558 13 317 1.6 4.8 0.30 0.61 0.61 99 1008.6
20260505204056 13 277 0.0 1.6 0.30 0.58 0.58 99 1008.6
20260505203552 13 315 1.6 4.8 1.37 0.56 0.56 99 1008.6
20260505203049 14 283 0.0 1.6 1.19 0.51 0.51 99 1008.6
20260505202545 13 282 0.0 0.0 0.43 0.33 0.33 99 1008.7
20260505202041 14 266 0.0 1.6 0.48 0.30 0.30 99 1008.6
20260505201538 14 291 0.0 3.2 0.18 0.25 0.25 99 1008.9
20260505201036 14 277 0.0 1.6 0.13 0.23 0.23 99 1008.7
20260505200534 14 290 0.0 0.0 0.13 0.23 0.23 99 1008.3
20260505200030 14 269 0.0 1.6 0.18 0.20 0.20 99 1008.5
20260505195526 14 297 1.6 3.2 0.66 0.20 0.20 99 1008.6
20260505195024 14 275 0.0 8.0 0.36 0.15 0.15 98 1008.7
20260505194521 14 273 1.6 1.6 0.00 0.10 0.10 98 1008.5
20260505194016 14 334 1.6 1.6 0.00 0.10 0.10 97 1008.4
20260505193514 15 282 0.0 4.8 0.13 0.10 0.10 97 1008.8
20260505193011 15 253 1.6 3.2 0.13 0.10 0.10 97 1008.8
20260505192509 15 285 0.0 1.6 0.18 0.08 0.08 96 1008.9
20260505192007 15 181 4.8 4.8 0.30 0.08 0.08 95 1008.8
20260505191505 15 334 4.8 4.8 0.13 0.05 0.05 93 1009.0
20260505191002 15 313 1.6 4.8 0.00 0.03 0.03 92 1009.2
20260505190457 15 315 1.6 3.2 0.18 0.03 0.03 91 1008.9
20260505185952 15 294 0.0 3.2 0.18 0.03 0.03 90 1008.9
20260505185450 15 313 0.0 4.8 0.00 0.00 0.00 89 1008.8
20260505184946 16 272 3.2 3.2 0.00 0.00 0.00 88 1008.7
20260505184443 16 342 1.6 3.2 0.00 0.00 0.00 87 1008.9
20260505183939 16 290 0.0 4.8 0.00 0.00 0.00 85 1009.0
20260505183437 17 281 1.6 3.2 0.00 0.00 0.00 81 1009.1
20260505182933 17 233 3.2 8.0 0.00 0.00 0.00 79 1008.9
20260505182430 17 275 0.0 4.8 0.00 0.00 0.00 78 1009.0
20260505181926 17 218 1.6 3.2 0.00 0.00 0.00 78 1008.7
20260505181424 17 232 3.2 8.0 0.00 0.00 0.00 77 1008.7
20260505180921 17 292 1.6 1.6 0.00 0.00 0.00 78 1008.8
20260505180417 17 357 1.6 4.8 0.00 0.00 0.00 76 1008.9
20260505175913 17 27 1.6 8.0 0.00 0.00 0.00 77 1008.7
20260505175404 17 270 1.6 9.7 0.00 0.00 0.00 77 1008.9
20260505174901 17 121 3.2 4.8 0.00 0.00 0.00 76 1008.8
20260505174358 17 256 4.8 9.7 0.00 0.00 0.00 76 1008.7
20260505173854 17 261 1.6 9.7 0.00 0.00 0.00 76 1008.8
20260505173351 17 286 6.4 12.9 0.00 0.00 0.00 75 1008.5
20260505172848 18 211 3.2 4.8 0.00 0.00 0.00 75 1008.6
20260505172346 17 341 3.2 3.2 0.00 0.00 0.00 76 1008.6
20260505171845 17 224 4.8 8.0 0.00 0.00 0.00 75 1008.7
20260505171342 17 308 1.6 11.3 0.00 0.00 0.00 75 1008.6
20260505170838 18 281 3.2 8.0 0.00 0.00 0.00 75 1008.7
20260505170336 18 308 1.6 9.7 0.00 0.00 0.00 75 1008.6
20260505165831 18 282 4.8 4.8 0.00 0.00 0.00 73 1008.6
20260505165327 18 94 6.4 12.9 0.00 0.00 0.00 72 1008.7
20260505164822 18 290 4.8 16.1 0.00 0.00 0.00 72 1008.6
20260505164320 18 229 4.8 8.0 0.00 0.00 0.00 72 1008.7
20260505163818 18 259 3.2 8.0 0.00 0.00 0.00 72 1008.5
20260505163316 18 321 4.8 8.0 0.00 0.00 0.00 71 1008.6
20260505162814 18 155 1.6 4.8 0.00 0.00 0.00 71 1008.5
20260505162310 18 181 1.6 9.7 0.00 0.00 0.00 72 1008.6
20260505161808 18 347 3.2 8.0 0.00 0.00 0.00 71 1008.6
20260505161305 18 336 4.8 9.7 0.00 0.00 0.00 71 1008.7
20260505160802 18 199 4.8 8.0 0.00 0.00 0.00 70 1008.6
20260505160300 18 265 3.2 9.7 0.00 0.00 0.00 69 1008.6
20260505153238 20 12 6.4 22.5 0.00 0.00 0.00 68 1008.1
20260505152735 20 79 4.8 12.9 0.00 0.00 0.00 68 1007.5
20260505152231 20 142 6.4 11.3 0.00 0.00 0.00 69 1007.7
20260505151726 19 228 1.6 17.7 0.00 0.00 0.00 69 1007.5
20260505151223 19 296 1.6 11.3 0.00 0.00 0.00 69 1007.3
20260505150720 19 228 3.2 9.7 0.00 0.00 0.00 69 1007.3
20260505150217 19 108 4.8 9.7 0.00 0.00 0.00 68 1007.1
20260505140645 17 204 4.8 16.1 0.00 0.00 0.00 72 1007.3
20260505140142 17 349 3.2 11.3 0.00 0.00 0.00 72 1007.2
20260505130106 16 225 3.2 3.2 0.00 0.00 0.00 81 1006.7
20260505124555 16 255 1.6 3.2 0.00 0.00 0.00 83 1007.2
20260505124052 16 253 1.6 1.6 0.00 0.00 0.00 83 1007.1
20260505123548 15 189 1.6 3.2 0.00 0.00 0.00 82 1007.1
20260505123045 15 246 1.6 3.2 0.00 0.00 0.00 82 1007.0
20260505122542 15 251 1.6 8.0 0.00 0.00 0.00 82 1007.2
20260505122039 15 247 1.6 4.8 0.00 0.00 0.00 83 1007.1
20260505121535 15 208 1.6 3.2 0.00 0.00 0.00 81 1006.8
20260505121032 16 237 0.0 4.8 0.00 0.00 0.00 81 1006.9
20260505120528 16 242 3.2 9.7 0.00 0.00 0.00 80 1006.8
20260505120024 16 215 4.8 8.0 0.00 0.00 0.00 80 1006.6
20260505115519 16 199 6.4 16.1 0.00 0.00 0.00 79 1006.2
20260505115017 16 261 4.8 8.0 0.00 0.00 0.00 78 1006.1
20260505114513 16 275 4.8 9.7 0.00 0.00 0.00 77 1006.0